Zurück zum Katalog

STARLINK-35872

AktivKommunikationVLEO
NORAD 66580·PAYLOAD·🇺🇸 United States

Gestartet Nov 21, 2025 von Cape Canaveral Space Force Station

Loading…

Nächste Überflüge (nächste 24 Stunden)

TLE

AktuellSource: CelesTrak SupGP

Epoche: Sep 15, 2026, 03:11 UTC

1 66580C 25268Z   26258.13312500  .00043654  00000+0  15809-2 0  2580
2 66580  43.0035 357.0486 0001856 274.9668 106.2571 15.27561672    12

Verfolge STARLINK-35872 in Echtzeit mit AllMySat

Download on the App Store